This demonstration page uses our WeatherBlox Daily Observations layout. Learn more.

Left ArrowRight Arrow

39.08367, -84.50855

Hourly Observations for October 26, 2018

Temp ( °F °C ) Dew Point ( °F °C ) Humidity (%) Winds ( mph kmh ) Pressure ( in mb ) Visibility ( mi km ) Precip ( " mm )
12:53 am 00:53 Mostly Cloudy 43 6.1 42 5.6 97 97 N N/A 30.00 1016 10 16 N/A
1:53 am 01:53 Cloudy 45 7.2 43 6.1 93 93 N N/A 29.98 1015 10 16 N/A
2:53 am 02:53 Cloudy 45 7.2 42 5.6 90 90 NE 3 6 29.95 1014 10 16 N/A
3:53 am 03:53 Cloudy 45 7.2 40 4.4 83 83 NNE 6 9 29.92 1013 10 16 N/A
4:53 am 04:53 Mostly Cloudy 46 7.8 40 4.4 79 79 NE 8 13 29.88 1012 10 16 N/A
5:53 am 05:53 Cloudy 46 7.8 40 4.4 79 79 NNE 8 13 29.84 1010 10 16 N/A
6:53 am 06:53 Cloudy with Light Rain 45 7.2 42 5.6 90 90 S 3 6 29.86 1011 10 16 N/A
7:53 am 07:53 Cloudy with Light Rain 45 7.2 44 6.7 97 97 E 3 6 29.85 1011 10 16 0.01 0.25
8:53 am 08:53 Cloudy 46 7.8 44 6.7 93 93 N N/A 29.85 1011 10 16 N/A
9:53 am 09:53 Cloudy 47 8.3 44 6.7 90 90 NE 5 7 29.83 1010 10 16 N/A
10:53 am 10:53 Cloudy 49 9.4 44 6.7 83 83 NE 7 11 29.80 1009 10 16 N/A
11:42 am 11:42 Cloudy with Light Rain 48 8.9 46 7.8 93 93 NNE 9 15 29.80 1009 3 4 N/A
11:50 am 11:50 Cloudy with Light Rain 46 8 46 8 100 100 NNE 8 13 29.80 1009 3 4 N/A
11:53 am 11:53 Cloudy with Light Rain 48 8.9 46 7.8 93 93 NE 8 13 29.78 1008 3 4 N/A
12:00 pm 12:00 Cloudy with Light Rain 48 8.9 46 7.8 93 93 NE 9 15 29.80 1009 3 5 N/A
12:22 pm 12:22 Cloudy with Light Rain 48 8.9 47 8.3 96 96 NE 8 13 29.80 1009 2 3 N/A
12:39 pm 12:39 Cloudy with Light Rain 48 8.9 48 8.9 100 100 NE 7 11 29.80 1009 2 3 0.01 0.25
12:53 pm 12:53 Cloudy with Light Rain 48 8.9 48 8.9 100 100 NE 5 7 29.75 1008 2 3 0.01 0.25
1:00 pm 13:00 Cloudy with Light Rain 48 8.9 48 8.9 100 100 NE 7 11 29.77 1008 2 2 N/A
1:22 pm 13:22 Cloudy with Light Rain 49 9.4 49 9.4 100 100 NE 6 9 29.77 1008 2 3 0.01 0.25
1:36 pm 13:36 Cloudy with Light Rain 49 9.4 49 9.4 100 100 NE 7 11 29.74 1007 2 2 0.01 0.25
1:43 pm 13:43 Cloudy with Light Rain 49 9.4 49 9.4 100 100 NNE 8 13 29.74 1007 2 2 0.01 0.25
1:53 pm 13:53 Cloudy with Light Rain 49 9.4 49 9.4 100 100 NE 6 9 29.71 1006 2 3 0.01 0.25
2:53 pm 14:53 Cloudy with Light Rain 50 10 50 10 100 100 NE 8 13 29.69 1005 1 2 0.02 0.51
3:53 pm 15:53 Cloudy with Light Rain 50 10 50 10 100 100 NE 6 9 29.67 1005 1 2 0.01 0.25
4:53 pm 16:53 Cloudy with Light Rain 50 10 50 10 100 100 ENE 5 7 29.66 1004 2 3 0.01 0.25
5:27 pm 17:27 Cloudy with Light Rain 50 10 50 10 100 100 NE 7 11 29.68 1005 1 2 N/A
5:53 pm 17:53 Cloudy with Rain 49 9.4 49 9.4 100 100 ENE 6 9 29.66 1004 2 2 0.02 0.51
6:13 pm 18:13 Cloudy with Light Rain 50 10 50 10 100 100 NNE 5 7 29.68 1005 3 4 0.02 0.51
6:53 pm 18:53 Cloudy with Light Rain 49 9.4 49 9.4 100 100 NE 8 13 29.66 1004 3 4 0.02 0.51
6:55 pm 18:55 Cloudy with Light Rain 49 9.4 49 9.4 100 100 NE 6 9 29.68 1005 5 8 N/A
7:53 pm 19:53 Cloudy with Light Rain 49 9.4 49 9.4 100 100 NNE 6 9 29.66 1004 3 5 0.04 1.02
8:53 pm 20:53 Cloudy with Light Rain 49 9.4 49 9.4 100 100 NNE 5 7 29.66 1004 7 11 0.02 0.51
9:53 pm 21:53 Cloudy 49 9.4 48 8.9 97 97 NNE 3 6 29.65 1004 10 16 0.01 0.25
10:53 pm 22:53 Cloudy with Light Rain 49 9.4 48 8.9 97 97 NNW 6 9 29.66 1004 4 6 N/A
11:53 pm 23:53 Cloudy 48 8.9 48 8.9 100 100 N 6 9 29.65 1004 8 13 N/A

Powered by AerisWeather